Weather History for Mexico City Airport, Mexico

Change the Weather History Date:

Saturday, July 9, 2011

  Actual Average Record
Temperature  
Mean Temperature 66 °F -  
Max Temperature 73 °F 73 °F 80 °F (1998)
Min Temperature 59 °F 53 °F 51 °F (1996)
Cooling Degree Days 1    
Growing Degree Days 16 (Base 50)    
Moisture  
Dew Point 53 °F    
Average Humidity 68    
Maximum Humidity 82    
Minimum Humidity 47    
Precipitation  
Precipitation 0.00 in - - ()
Sea Level Pressure  
Sea Level Pressure 30.14 in    
Wind  
Wind Speed 4 mph ()    
Max Wind Speed 14 mph    
Max Gust Speed 17 mph    
Visibility 6.0 miles    
Events Rain , Thunderstorm    
Averages and records for this station are not official NWS values.
T = Trace of Precipitation, MM = Missing Value Source: Averaged Metar Reports

Daily Weather History Graph

Daily Weather History Graph

Search for Another Location

Airport:

Trip Planner

Search our weather history database for the weather conditions in past years. The results will help you decide how hot, cold, wet, or windy it might be!

Date:

Astronomy

Jul. 09, 2011 Rise Set
Actual Time 7:04 AM CDT 8:18 PM CDT
Civil Twilight 6:40 AM CDT 8:42 PM CDT
Nautical Twilight 6:11 AM CDT 9:11 PM CDT
Astronomical Twilight 5:41 AM CDT 9:41 PM CDT
Moon 3:11 PM CDT (7/9) 1:52 AM CDT (7/9)
Length of Visible Light 14h 02m
Length of Day
13h 14m
Waxing Gibbous, 66% of the Moon is Illuminated
Jul 9
Waxing Gibbous
Jul 15
Full
Jul 23
Last Quarter
Jul 30
New
Aug 6
First Quarter

Hourly Weather History & Observations

Time (CDT) Temp. Dew Point Humidity Pressure Visibility Wind Dir Wind Speed Gust Speed Precip Events Conditions
12:45 AM 62.6 °F 53.6 °F 72% 29.71 in 8.0 mi Calm Calm - N/A   Scattered Clouds
1:45 AM 62.6 °F 55.4 °F 77% 30.24 in 8.0 mi East 5.8 mph - N/A   Mostly Cloudy
2:45 AM 60.8 °F 53.6 °F 77% 30.23 in 8.0 mi SE 3.5 mph - N/A   Scattered Clouds
3:45 AM 60.8 °F 53.6 °F 77% 29.67 in 8.0 mi South 4.6 mph - N/A   Mostly Cloudy
4:46 AM 60.8 °F 53.6 °F 77% 30.22 in 8.0 mi Calm Calm - N/A   Mostly Cloudy
5:45 AM 60.8 °F 53.6 °F 77% 30.22 in 8.0 mi Calm Calm - N/A   Scattered Clouds
6:45 AM 59.0 °F 51.8 °F 77% 29.76 in 8.0 mi Calm Calm - N/A   Scattered Clouds
7:20 AM 59.0 °F 51.8 °F 77% 30.25 in 7.0 mi ENE 5.8 mph - N/A   Mostly Cloudy
7:44 AM 59.0 °F 51.8 °F 77% 30.25 in 7.0 mi Calm Calm - N/A   Mostly Cloudy
8:20 AM 60.8 °F 53.6 °F 77% 30.26 in 6.0 mi NE 3.5 mph - N/A   Mostly Cloudy
8:46 AM 60.8 °F 53.6 °F 77% 30.27 in 6.0 mi Calm Calm - N/A   Mostly Cloudy
9:20 AM 62.6 °F 53.6 °F 72% 30.27 in 6.0 mi North 4.6 mph - N/A   Scattered Clouds
9:46 AM 62.6 °F 53.6 °F 72% 29.79 in 6.0 mi North 3.5 mph - N/A   Mostly Cloudy
10:19 AM 66.2 °F 55.4 °F 68% 30.29 in 5.0 mi ENE 6.9 mph - N/A   Mostly Cloudy
10:20 AM 66.2 °F 55.4 °F 68% 30.29 in 5.0 mi ENE 6.9 mph - N/A   Mostly Cloudy
10:45 AM 66.2 °F 55.4 °F 68% 30.30 in 5.0 mi NE 6.9 mph - N/A   Mostly Cloudy
11:39 AM 69.8 °F 53.6 °F 56% 30.29 in 5.0 mi NNE 4.6 mph - N/A   Scattered Clouds
11:45 AM 69.8 °F 53.6 °F 56% 30.29 in 5.0 mi Calm Calm - N/A   Scattered Clouds
12:47 PM 71.6 °F 53.6 °F 53% 29.73 in 4.0 mi ENE 9.2 mph - N/A   Scattered Clouds
1:46 PM 73.4 °F 51.8 °F 47% 30.25 in 6.0 mi NE 3.5 mph 17.3 mph N/A   Mostly Cloudy
1:49 PM 73.4 °F 51.8 °F 47% 30.25 in 6.0 mi NE 3.5 mph 17.3 mph N/A   Mostly Cloudy
2:48 PM 71.6 °F 53.6 °F 53% 30.23 in 6.0 mi East 10.4 mph - N/A   Overcast
3:29 PM 68.0 °F 51.8 °F 56% 30.23 in 6.0 mi West 13.8 mph - N/A   Overcast
3:33 PM 68.0 °F 51.8 °F 56% 30.23 in 6.0 mi West 13.8 mph - N/A   Overcast
3:45 PM 66.2 °F 51.8 °F 60% 30.23 in 6.0 mi WNW 13.8 mph - N/A Rain Light Rain
3:46 PM 66.2 °F 51.8 °F 60% 29.75 in 6.0 mi WNW 13.8 mph - N/A Rain Light Rain
3:58 PM 62.6 °F 51.8 °F 68% 30.24 in 5.0 mi WNW 12.7 mph - N/A Rain , Thunderstorm Thunderstorms and Rain
4:18 PM 60.8 °F 55.4 °F 82% 30.23 in 5.0 mi NNW 12.7 mph - N/A Rain , Thunderstorm Light Thunderstorms and Rain
4:32 PM 60.8 °F 53.6 °F 77% 30.22 in 6.0 mi NW 12.7 mph - N/A Thunderstorm Thunderstorm
4:44 PM 60.8 °F 53.6 °F 77% 30.22 in 6.0 mi NNW 11.5 mph - N/A Thunderstorm Thunderstorm
4:57 PM 60.8 °F 51.8 °F 72% 30.22 in 6.0 mi NW 12.7 mph - N/A   Overcast
5:50 PM 62.6 °F 53.6 °F 72% 30.21 in 6.0 mi West 3.5 mph - N/A   Overcast
6:48 PM 64.4 °F 51.8 °F 64% 29.74 in 6.0 mi WSW 3.5 mph - N/A   Overcast
7:43 PM 64.4 °F 51.8 °F 64% 30.28 in 4.0 mi NNW 3.5 mph - N/A   Overcast
8:45 PM 64.4 °F 53.6 °F 68% 30.24 in 4.0 mi NNE 6.9 mph - N/A   Overcast
9:45 PM 64.4 °F 53.6 °F 68% 29.78 in 4.0 mi NE 2.3 mph - N/A   Mostly Cloudy
10:45 PM 64.4 °F 53.6 °F 68% 30.27 in 5.0 mi NW 3.5 mph - N/A   Mostly Cloudy
11:46 PM 62.6 °F 53.6 °F 72% 30.29 in 5.0 mi NW 11.5 mph - N/A   Overcast